Precipitable_Water
0.52 0.52 0.52 0.52 0.51 0.51 0.50 0.51 0.51 0.50 0.50 0.49 0.49 0.49 0.49 0.48 0.48 0.48 0.48 0.48 0.46 0.46 0.46 0.45 0.44 0.43 0.42 0.44 0.46 0.45 0.43 0.32 0.26 0.24 0.22 0.24 0.29 0.35 0.34 0.36 0.38 0.41 0.40 0.35 0.33 0.30 0.26 0.29 0.30 0.36 0.33 0.32 0.31 0.29 0.37 0.35 0.35 0.32 0.22 0.19 0.16 0.15 0.14 0.17 0.15 0.16 0.18 0.16 0.19 0.20 0.22 0.21 0.18 0.22 0.24 0.27 0.24 0.24 0.24 0.22 0.23 0.26 0.25 0.25 0.27 0.30 0.32 0.34
0.53 0.53 0.52 0.52 0.52 0.52 0.51 0.51 0.51 0.51 0.51 0.51 0.50 0.50 0.49 0.49 0.48 0.48 0.48 0.48 0.48 0.47 0.47 0.47 0.44 0.44 0.44 0.44 0.46 0.46 0.40 0.30 0.23 0.23 0.19 0.31 0.32 0.36 0.37 0.39 0.40 0.39 0.37 0.31 0.27 0.26 0.24 0.25 0.29 0.32 0.30 0.26 0.36 0.28 0.35 0.30 0.38 0.25 0.22 0.20 0.15 0.18 0.17 0.19 0.18 0.19 0.18 0.17 0.20 0.21 0.22 0.22 0.20 0.23 0.25 0.21 0.20 0.21 0.20 0.20 0.21 0.21 0.22 0.25 0.26 0.28 0.29 0.31
0.54 0.53 0.53 0.53 0.53 0.52 0.52 0.51 0.51 0.51 0.51 0.51 0.50 0.50 0.50 0.49 0.49 0.49 0.49 0.49 0.48 0.48 0.47 0.47 0.46 0.43 0.42 0.44 0.45 0.45 0.36 0.26 0.21 0.17 0.24 0.37 0.39 0.40 0.42 0.43 0.42 0.40 0.34 0.30 0.30 0.27 0.25 0.26 0.29 0.29 0.28 0.25 0.29 0.26 0.32 0.29 0.31 0.29 0.23 0.18 0.18 0.20 0.19 0.20 0.20 0.19 0.20 0.21 0.20 0.20 0.22 0.22 0.23 0.23 0.26 0.20 0.19 0.22 0.18 0.16 0.18 0.18 0.17 0.19 0.22 0.25 0.26 0.28
0.55 0.55 0.54 0.54 0.54 0.54 0.53 0.53 0.53 0.53 0.52 0.52 0.52 0.52 0.52 0.51 0.51 0.51 0.50 0.50 0.49 0.49 0.49 0.47 0.46 0.44 0.43 0.43 0.47 0.43 0.33 0.22 0.17 0.21 0.33 0.45 0.46 0.46 0.47 0.47 0.44 0.41 0.37 0.34 0.34 0.30 0.30 0.31 0.31 0.30 0.27 0.23 0.26 0.31 0.25 0.31 0.25 0.30 0.24 0.18 0.18 0.21 0.18 0.19 0.20 0.21 0.22 0.23 0.21 0.21 0.22 0.21 0.23 0.24 0.23 0.21 0.19 0.17 0.17 0.18 0.17 0.16 0.18 0.20 0.23 0.23 0.25 0.25
0.58 0.58 0.58 0.57 0.57 0.56 0.55 0.55 0.55 0.55 0.55 0.55 0.56 0.56 0.55 0.56 0.55 0.54 0.54 0.53 0.52 0.51 0.51 0.50 0.49 0.47 0.46 0.48 0.46 0.41 0.27 0.17 0.20 0.29 0.42 0.46 0.49 0.48 0.46 0.46 0.43 0.39 0.38 0.35 0.34 0.32 0.30 0.28 0.28 0.27 0.25 0.21 0.24 0.26 0.25 0.28 0.31 0.27 0.20 0.22 0.21 0.21 0.18 0.21 0.22 0.24 0.24 0.25 0.23 0.22 0.20 0.20 0.26 0.24 0.22 0.22 0.18 0.15 0.16 0.18 0.20 0.19 0.21 0.21 0.21 0.23 0.24 0.24
0.60 0.61 0.61 0.59 0.58 0.58 0.59 0.58 0.57 0.58 0.58 0.58 0.58 0.58 0.58 0.58 0.58 0.57 0.57 0.56 0.56 0.55 0.54 0.53 0.52 0.50 0.49 0.50 0.47 0.37 0.26 0.13 0.28 0.29 0.42 0.47 0.47 0.48 0.46 0.46 0.43 0.40 0.38 0.34 0.31 0.31 0.28 0.27 0.27 0.23 0.22 0.21 0.21 0.19 0.23 0.26 0.30 0.18 0.21 0.22 0.22 0.23 0.21 0.24 0.24 0.25 0.26 0.24 0.23 0.22 0.24 0.26 0.24 0.22 0.25 0.25 0.21 0.19 0.20 0.21 0.20 0.21 0.22 0.23 0.23 0.23 0.22 0.23
0.64 0.63 0.63 0.61 0.60 0.60 0.60 0.60 0.59 0.60 0.60 0.61 0.60 0.61 0.61 0.61 0.60 0.60 0.60 0.60 0.59 0.59 0.57 0.56 0.54 0.53 0.51 0.48 0.48 0.33 0.26 0.25 0.30 0.39 0.44 0.51 0.51 0.49 0.48 0.46 0.44 0.39 0.36 0.31 0.30 0.28 0.28 0.26 0.26 0.23 0.23 0.22 0.23 0.22 0.24 0.25 0.29 0.24 0.18 0.23 0.22 0.26 0.23 0.25 0.26 0.28 0.27 0.26 0.24 0.27 0.29 0.24 0.23 0.21 0.25 0.26 0.25 0.24 0.23 0.23 0.22 0.22 0.23 0.24 0.22 0.22 0.22 0.22
0.73 0.71 0.69 0.69 0.68 0.67 0.67 0.67 0.67 0.66 0.66 0.66 0.66 0.65 0.65 0.64 0.64 0.64 0.64 0.64 0.63 0.63 0.63 0.61 0.59 0.57 0.55 0.41 0.31 0.27 0.26 0.24 0.32 0.46 0.54 0.53 0.54 0.53 0.49 0.46 0.43 0.39 0.35 0.31 0.29 0.27 0.28 0.24 0.23 0.25 0.22 0.20 0.23 0.22 0.25 0.24 0.27 0.23 0.22 0.23 0.24 0.26 0.25 0.27 0.28 0.29 0.29 0.28 0.30 0.30 0.26 0.23 0.24 0.25 0.27 0.25 0.26 0.26 0.25 0.24 0.24 0.23 0.24 0.23 0.22 0.22 0.22 0.22
0.83 0.81 0.78 0.78 0.77 0.76 0.76 0.75 0.75 0.74 0.74 0.74 0.75 0.74 0.73 0.73 0.72 0.71 0.70 0.68 0.67 0.66 0.65 0.65 0.62 0.62 0.59 0.44 0.31 0.25 0.22 0.32 0.38 0.45 0.56 0.52 0.51 0.50 0.47 0.40 0.44 0.39 0.36 0.36 0.36 0.33 0.31 0.28 0.28 0.28 0.23 0.24 0.27 0.24 0.26 0.24 0.21 0.25 0.23 0.25 0.26 0.25 0.26 0.27 0.27 0.27 0.28 0.28 0.29 0.26 0.23 0.24 0.26 0.28 0.24 0.24 0.25 0.26 0.27 0.26 0.25 0.25 0.24 0.23 0.22 0.22 0.23 0.22
0.88 0.87 0.86 0.84 0.83 0.83 0.83 0.82 0.81 0.81 0.81 0.81 0.82 0.81 0.81 0.81 0.80 0.79 0.78 0.78 0.77 0.76 0.74 0.73 0.70 0.68 0.54 0.41 0.34 0.23 0.30 0.41 0.47 0.55 0.57 0.55 0.52 0.49 0.47 0.47 0.44 0.42 0.38 0.39 0.39 0.38 0.34 0.33 0.32 0.35 0.32 0.29 0.30 0.26 0.28 0.26 0.22 0.28 0.27 0.27 0.26 0.26 0.26 0.27 0.25 0.26 0.27 0.26 0.27 0.24 0.23 0.23 0.27 0.26 0.20 0.24 0.26 0.26 0.26 0.25 0.26 0.26 0.25 0.25 0.25 0.24 0.24 0.23
0.94 0.92 0.91 0.90 0.89 0.89 0.88 0.87 0.86 0.87 0.87 0.87 0.86 0.86 0.85 0.84 0.82 0.81 0.79 0.78 0.77 0.76 0.76 0.75 0.79 0.72 0.56 0.53 0.39 0.31 0.50 0.46 0.54 0.59 0.59 0.57 0.52 0.47 0.45 0.48 0.49 0.44 0.42 0.41 0.39 0.40 0.40 0.39 0.39 0.38 0.35 0.29 0.31 0.29 0.29 0.29 0.31 0.30 0.29 0.29 0.27 0.28 0.28 0.28 0.28 0.26 0.27 0.25 0.27 0.27 0.24 0.26 0.27 0.26 0.22 0.22 0.26 0.27 0.26 0.26 0.27 0.27 0.27 0.27 0.28 0.27 0.27 0.26
1.00 0.98 0.96 0.95 0.94 0.92 0.91 0.90 0.90 0.90 0.90 0.89 0.88 0.88 0.88 0.86 0.86 0.84 0.83 0.81 0.80 0.79 0.77 0.76 0.73 0.69 0.56 0.52 0.47 0.47 0.60 0.62 0.71 0.70 0.68 0.65 0.57 0.56 0.55 0.55 0.52 0.49 0.45 0.40 0.41 0.44 0.44 0.43 0.42 0.37 0.29 0.36 0.28 0.31 0.30 0.34 0.32 0.31 0.31 0.25 0.27 0.28 0.26 0.27 0.26 0.25 0.26 0.24 0.28 0.28 0.25 0.22 0.24 0.21 0.23 0.24 0.26 0.27 0.27 0.27 0.27 0.27 0.28 0.29 0.30 0.30 0.30 0.30
1.00 0.99 0.98 0.97 0.96 0.95 0.94 0.93 0.94 0.94 0.93 0.93 0.93 0.93 0.93 0.92 0.90 0.90 0.88 0.86 0.86 0.85 0.84 0.81 0.75 0.68 0.52 0.42 0.48 0.60 0.65 0.71 0.71 0.70 0.69 0.70 0.67 0.68 0.66 0.63 0.58 0.55 0.51 0.46 0.44 0.48 0.48 0.46 0.44 0.37 0.37 0.34 0.31 0.27 0.33 0.36 0.33 0.32 0.30 0.27 0.25 0.25 0.24 0.27 0.27 0.26 0.25 0.26 0.28 0.27 0.16 0.19 0.21 0.23 0.24 0.25 0.26 0.26 0.26 0.26 0.27 0.28 0.29 0.30 0.31 0.31 0.32 0.33
0.96 0.95 0.95 0.94 0.94 0.94 0.94 0.95 0.94 0.97 0.96 0.96 0.98 0.97 0.95 0.93 0.92 0.90 0.88 0.86 0.87 0.87 0.85 0.82 0.76 0.62 0.50 0.42 0.50 0.60 0.66 0.67 0.67 0.62 0.61 0.66 0.61 0.61 0.64 0.64 0.62 0.58 0.55 0.48 0.48 0.48 0.47 0.48 0.45 0.42 0.41 0.35 0.31 0.40 0.34 0.33 0.34 0.27 0.29 0.29 0.23 0.22 0.21 0.26 0.25 0.27 0.24 0.28 0.28 0.27 0.18 0.19 0.22 0.24 0.25 0.27 0.26 0.25 0.24 0.25 0.26 0.28 0.29 0.30 0.31 0.32 0.33 0.35
0.93 0.93 0.93 0.93 0.93 0.94 0.95 0.96 0.97 0.98 0.99 0.98 0.98 0.97 0.94 0.90 0.90 0.88 0.89 0.86 0.88 0.87 0.84 0.84 0.75 0.57 0.46 0.46 0.57 0.65 0.69 0.67 0.57 0.57 0.62 0.57 0.54 0.53 0.54 0.58 0.56 0.56 0.54 0.52 0.48 0.48 0.47 0.47 0.43 0.37 0.34 0.39 0.38 0.32 0.29 0.29 0.29 0.29 0.24 0.22 0.25 0.21 0.21 0.24 0.27 0.26 0.23 0.27 0.29 0.26 0.19 0.20 0.22 0.24 0.27 0.28 0.27 0.26 0.25 0.26 0.27 0.28 0.29 0.30 0.31 0.32 0.33 0.34
0.95 0.95 0.94 0.95 0.95 0.97 0.98 1.00 1.01 1.03 1.03 1.03 1.02 1.00 0.97 0.95 0.93 0.92 0.92 0.90 0.90 0.87 0.86 0.69 0.64 0.58 0.49 0.43 0.52 0.73 0.62 0.52 0.53 0.61 0.64 0.62 0.57 0.51 0.56 0.54 0.55 0.54 0.53 0.50 0.53 0.49 0.46 0.44 0.36 0.35 0.34 0.34 0.31 0.28 0.26 0.26 0.25 0.27 0.24 0.20 0.21 0.22 0.21 0.22 0.25 0.26 0.26 0.26 0.27 0.24 0.18 0.20 0.21 0.25 0.26 0.27 0.27 0.27 0.26 0.26 0.27 0.27 0.28 0.29 0.30 0.31 0.32 0.32
0.97 0.98 0.99 1.00 1.01 1.03 1.04 1.06 1.07 1.08 1.08 1.07 1.06 1.01 0.98 0.97 0.94 0.92 0.91 0.89 0.87 0.88 0.78 0.61 0.63 0.60 0.42 0.53 0.62 0.49 0.48 0.54 0.64 0.62 0.62 0.64 0.59 0.55 0.54 0.53 0.51 0.52 0.55 0.54 0.52 0.49 0.44 0.39 0.39 0.36 0.36 0.30 0.31 0.29 0.23 0.22 0.21 0.22 0.24 0.20 0.23 0.21 0.21 0.20 0.25 0.27 0.28 0.26 0.23 0.26 0.23 0.22 0.24 0.26 0.26 0.27 0.27 0.27 0.26 0.26 0.26 0.26 0.27 0.27 0.28 0.29 0.30 0.30
0.97 0.98 1.00 1.02 1.03 1.04 1.07 1.08 1.09 1.09 1.09 1.07 1.03 0.97 0.95 0.98 0.98 0.93 0.88 0.89 0.91 0.86 0.79 0.78 0.68 0.56 0.48 0.57 0.45 0.47 0.55 0.53 0.56 0.57 0.60 0.64 0.63 0.60 0.58 0.53 0.54 0.53 0.51 0.48 0.52 0.44 0.45 0.39 0.41 0.33 0.34 0.32 0.30 0.28 0.22 0.18 0.21 0.21 0.22 0.22 0.22 0.25 0.25 0.23 0.23 0.27 0.29 0.29 0.26 0.26 0.25 0.24 0.26 0.28 0.29 0.30 0.30 0.28 0.27 0.27 0.27 0.27 0.27 0.28 0.28 0.29 0.30 0.31
1.04 1.05 1.06 1.07 1.07 1.08 1.09 1.11 1.11 1.12 1.10 1.07 1.03 1.01 1.01 1.00 0.94 0.88 0.75 0.77 0.71 0.64 0.56 0.54 0.56 0.42 0.39 0.48 0.56 0.57 0.59 0.65 0.70 0.68 0.61 0.64 0.65 0.63 0.60 0.59 0.55 0.49 0.44 0.42 0.43 0.43 0.44 0.41 0.40 0.34 0.29 0.30 0.29 0.29 0.27 0.26 0.26 0.24 0.25 0.24 0.25 0.23 0.24 0.25 0.29 0.32 0.32 0.28 0.26 0.26 0.25 0.26 0.28 0.29 0.30 0.31 0.31 0.30 0.29 0.30 0.29 0.29 0.29 0.30 0.31 0.31 0.32 0.33
1.16 1.17 1.16 1.15 1.14 1.16 1.15 1.17 1.17 1.16 1.13 1.05 1.00 0.92 0.87 0.77 0.72 0.65 0.73 0.74 0.66 0.65 0.64 0.65 0.66 0.63 0.64 0.65 0.66 0.76 0.84 0.80 0.65 0.67 0.68 0.69 0.63 0.59 0.55 0.53 0.49 0.48 0.42 0.36 0.40 0.42 0.44 0.33 0.30 0.29 0.31 0.32 0.34 0.34 0.32 0.31 0.31 0.29 0.29 0.28 0.26 0.26 0.26 0.30 0.31 0.35 0.36 0.30 0.27 0.27 0.27 0.27 0.27 0.28 0.29 0.30 0.30 0.29 0.29 0.29 0.29 0.29 0.30 0.31 0.32 0.34 0.37 0.38
1.27 1.26 1.25 1.25 1.24 1.24 1.22 1.19 1.18 1.18 1.13 1.05 0.97 0.85 0.66 0.68 0.56 0.54 0.67 0.71 0.75 0.75 0.69 0.67 0.67 0.64 0.60 0.65 0.67 0.67 0.61 0.64 0.71 0.70 0.73 0.79 0.70 0.61 0.52 0.52 0.45 0.39 0.41 0.42 0.39 0.44 0.42 0.32 0.32 0.35 0.37 0.37 0.37 0.37 0.36 0.34 0.33 0.31 0.30 0.29 0.27 0.29 0.26 0.32 0.32 0.36 0.37 0.31 0.27 0.29 0.27 0.26 0.27 0.29 0.29 0.30 0.30 0.28 0.30 0.30 0.31 0.31 0.33 0.34 0.35 0.36 0.37 0.38
1.34 1.35 1.35 1.33 1.33 1.31 1.30 1.27 1.25 1.23 1.16 1.07 0.97 0.84 0.85 0.84 0.88 0.90 0.77 0.58 0.70 0.75 0.74 0.73 0.77 0.70 0.77 0.76 0.77 0.77 0.72 0.62 0.63 0.68 0.76 0.76 0.66 0.59 0.56 0.54 0.48 0.42 0.45 0.45 0.43 0.39 0.36 0.33 0.38 0.42 0.44 0.42 0.40 0.39 0.38 0.35 0.33 0.34 0.31 0.31 0.30 0.30 0.33 0.33 0.35 0.36 0.35 0.31 0.26 0.28 0.25 0.25 0.27 0.28 0.29 0.31 0.31 0.32 0.33 0.33 0.33 0.33 0.32 0.33 0.36 0.36 0.36 0.36
1.42 1.41 1.41 1.42 1.41 1.41 1.40 1.40 1.36 1.31 1.18 1.07 0.96 0.93 0.92 1.00 1.01 0.99 0.89 0.74 0.67 0.82 0.77 0.76 0.72 0.73 0.75 0.83 0.82 0.85 0.68 0.63 0.60 0.67 0.70 0.73 0.63 0.62 0.59 0.53 0.50 0.50 0.50 0.48 0.41 0.40 0.35 0.39 0.44 0.47 0.47 0.44 0.42 0.41 0.40 0.38 0.37 0.35 0.34 0.32 0.29 0.32 0.31 0.26 0.31 0.32 0.32 0.30 0.26 0.27 0.25 0.25 0.28 0.30 0.31 0.33 0.33 0.33 0.35 0.35 0.34 0.33 0.32 0.34 0.35 0.35 0.34 0.34
1.49 1.48 1.47 1.46 1.48 1.47 1.47 1.44 1.42 1.28 1.18 1.13 1.08 1.06 1.15 1.14 1.09 1.02 0.87 0.67 0.63 0.74 0.78 0.78 0.77 0.74 0.71 0.68 0.78 0.74 0.67 0.66 0.66 0.63 0.78 0.70 0.60 0.64 0.58 0.54 0.51 0.50 0.47 0.49 0.47 0.43 0.41 0.45 0.49 0.48 0.47 0.44 0.40 0.41 0.39 0.38 0.34 0.37 0.36 0.34 0.32 0.32 0.32 0.30 0.28 0.31 0.32 0.32 0.33 0.29 0.26 0.26 0.28 0.27 0.28 0.32 0.34 0.33 0.34 0.34 0.33 0.35 0.36 0.36 0.36 0.36 0.36 0.35
1.49 1.50 1.50 1.49 1.48 1.51 1.48 1.48 1.30 1.24 1.29 1.20 1.15 1.22 1.24 1.19 1.12 1.06 0.84 0.70 0.65 0.65 0.81 0.74 0.74 0.69 0.67 0.79 0.77 0.64 0.64 0.65 0.64 0.66 0.72 0.68 0.61 0.58 0.54 0.57 0.52 0.44 0.46 0.47 0.46 0.43 0.43 0.49 0.50 0.45 0.45 0.44 0.42 0.39 0.40 0.39 0.33 0.35 0.38 0.37 0.34 0.34 0.32 0.32 0.32 0.31 0.28 0.28 0.32 0.29 0.21 0.20 0.26 0.27 0.27 0.31 0.32 0.32 0.34 0.33 0.33 0.34 0.35 0.34 0.34 0.35 0.36 0.36
1.49 1.51 1.51 1.50 1.48 1.46 1.49 1.24 1.21 1.30 1.23 1.14 1.18 1.25 1.25 1.21 1.14 1.07 0.80 0.56 0.44 0.58 0.64 0.49 0.69 0.54 0.73 0.60 0.66 0.64 0.64 0.54 0.66 0.65 0.70 0.71 0.71 0.60 0.56 0.51 0.53 0.43 0.47 0.47 0.44 0.44 0.44 0.50 0.48 0.44 0.43 0.42 0.41 0.39 0.42 0.42 0.34 0.32 0.33 0.40 0.37 0.35 0.34 0.33 0.33 0.32 0.25 0.23 0.30 0.33 0.23 0.17 0.25 0.25 0.28 0.31 0.32 0.32 0.34 0.34 0.33 0.33 0.34 0.34 0.35 0.35 0.35 0.36
1.46 1.46 1.48 1.49 1.48 1.49 1.24 1.06 1.29 1.25 1.06 1.10 1.24 1.24 1.21 1.16 1.15 0.97 0.65 0.48 0.39 0.54 0.47 0.57 0.56 0.58 0.66 0.61 0.62 0.64 0.43 0.49 0.66 0.69 0.66 0.72 0.61 0.68 0.50 0.48 0.51 0.51 0.51 0.49 0.43 0.38 0.46 0.45 0.45 0.45 0.43 0.40 0.39 0.37 0.41 0.41 0.36 0.31 0.40 0.40 0.39 0.36 0.35 0.35 0.34 0.32 0.29 0.33 0.33 0.33 0.30 0.23 0.19 0.25 0.30 0.32 0.32 0.32 0.33 0.33 0.34 0.34 0.34 0.35 0.35 0.36 0.37 0.37
1.41 1.42 1.42 1.45 1.46 1.44 1.25 1.26 1.19 1.08 1.08 1.19 1.25 1.22 1.21 1.15 1.09 0.94 0.61 0.33 0.31 0.54 0.48 0.51 0.58 0.74 0.64 0.63 0.64 0.54 0.51 0.56 0.46 0.55 0.63 0.66 0.63 0.55 0.50 0.45 0.45 0.46 0.49 0.47 0.34 0.44 0.46 0.44 0.44 0.43 0.43 0.41 0.39 0.42 0.45 0.44 0.38 0.36 0.40 0.41 0.38 0.38 0.38 0.37 0.35 0.33 0.32 0.30 0.25 0.29 0.32 0.25 0.21 0.27 0.32 0.32 0.30 0.31 0.31 0.32 0.34 0.35 0.35 0.36 0.37 0.38 0.39 0.39
1.35 1.35 1.38 1.40 1.41 1.43 1.40 1.25 1.16 1.05 1.20 1.23 1.23 1.20 1.17 1.11 0.96 0.68 0.50 0.31 0.49 0.51 0.71 0.51 0.72 0.62 0.59 0.61 0.54 0.53 0.52 0.54 0.43 0.53 0.62 0.64 0.64 0.56 0.46 0.48 0.48 0.47 0.48 0.46 0.39 0.44 0.47 0.47 0.47 0.46 0.43 0.40 0.45 0.46 0.47 0.47 0.40 0.44 0.46 0.45 0.44 0.43 0.41 0.39 0.36 0.34 0.33 0.29 0.23 0.27 0.31 0.25 0.21 0.30 0.28 0.31 0.31 0.30 0.31 0.33 0.35 0.38 0.39 0.39 0.39 0.40 0.41 0.41
1.29 1.29 1.32 1.36 1.36 1.31 1.27 1.28 1.13 1.21 1.23 1.23 1.19 1.16 1.13 0.96 0.76 0.51 0.40 0.28 0.50 0.39 0.53 0.58 0.54 0.49 0.55 0.49 0.49 0.53 0.49 0.51 0.53 0.55 0.57 0.54 0.57 0.60 0.55 0.57 0.49 0.46 0.44 0.46 0.43 0.44 0.47 0.51 0.51 0.46 0.43 0.45 0.46 0.48 0.48 0.48 0.47 0.50 0.48 0.44 0.43 0.42 0.41 0.41 0.39 0.37 0.33 0.26 0.25 0.31 0.33 0.30 0.21 0.27 0.28 0.29 0.31 0.33 0.33 0.35 0.38 0.42 0.43 0.43 0.42 0.42 0.41 0.41
1.22 1.22 1.25 1.32 1.16 1.20 1.17 1.00 1.11 1.20 1.21 1.18 1.15 1.06 0.93 0.78 0.52 0.40 0.29 0.40 0.51 0.49 0.57 0.53 0.50 0.57 0.49 0.46 0.43 0.50 0.48 0.49 0.49 0.51 0.48 0.54 0.51 0.54 0.52 0.47 0.52 0.45 0.44 0.43 0.43 0.46 0.47 0.47 0.45 0.47 0.50 0.49 0.50 0.47 0.51 0.52 0.51 0.49 0.44 0.41 0.40 0.39 0.39 0.38 0.37 0.38 0.30 0.25 0.31 0.35 0.34 0.33 0.23 0.26 0.31 0.34 0.36 0.36 0.36 0.37 0.39 0.43 0.44 0.43 0.43 0.44 0.45 0.46
1.14 1.15 1.17 1.20 1.25 1.26 1.00 0.93 1.13 1.19 1.14 1.13 1.05 0.85 0.72 0.45 0.53 0.33 0.31 0.54 0.37 0.48 0.46 0.45 0.50 0.49 0.46 0.47 0.44 0.44 0.44 0.47 0.49 0.48 0.44 0.46 0.44 0.43 0.45 0.40 0.43 0.35 0.34 0.36 0.35 0.42 0.37 0.38 0.43 0.45 0.50 0.47 0.45 0.43 0.44 0.48 0.49 0.47 0.45 0.42 0.36 0.32 0.34 0.29 0.31 0.28 0.28 0.26 0.31 0.35 0.35 0.29 0.24 0.30 0.34 0.37 0.38 0.41 0.42 0.42 0.42 0.43 0.43 0.44 0.46 0.47 0.48 0.51
1.11 1.10 1.11 1.12 1.17 1.13 1.14 1.18 1.21 1.16 1.12 1.06 0.89 0.75 0.51 0.38 0.26 0.37 0.39 0.44 0.37 0.48 0.45 0.50 0.45 0.44 0.44 0.43 0.42 0.47 0.50 0.41 0.47 0.45 0.45 0.45 0.41 0.42 0.45 0.43 0.44 0.39 0.29 0.34 0.32 0.31 0.32 0.38 0.39 0.41 0.43 0.46 0.44 0.36 0.37 0.39 0.45 0.45 0.42 0.41 0.36 0.31 0.30 0.26 0.29 0.32 0.30 0.32 0.36 0.35 0.36 0.28 0.29 0.33 0.38 0.38 0.40 0.42 0.42 0.43 0.44 0.43 0.43 0.46 0.48 0.49 0.50 0.50
1.04 1.03 0.99 1.04 1.09 1.14 1.16 1.17 1.16 1.14 1.04 0.97 0.76 0.61 0.50 0.32 0.29 0.46 0.40 0.43 0.40 0.52 0.48 0.44 0.45 0.46 0.44 0.38 0.42 0.45 0.38 0.44 0.42 0.39 0.40 0.36 0.36 0.32 0.34 0.37 0.38 0.35 0.34 0.31 0.27 0.28 0.24 0.23 0.31 0.35 0.32 0.43 0.40 0.39 0.39 0.38 0.39 0.38 0.41 0.37 0.33 0.31 0.28 0.25 0.28 0.25 0.26 0.29 0.33 0.36 0.31 0.26 0.24 0.29 0.37 0.39 0.41 0.43 0.45 0.45 0.45 0.46 0.48 0.49 0.51 0.51 0.49 0.48
0.96 0.94 0.93 0.94 0.95 0.98 1.07 1.15 1.13 1.13 1.01 0.85 0.65 0.52 0.36 0.31 0.38 0.36 0.38 0.42 0.46 0.47 0.43 0.48 0.42 0.40 0.39 0.41 0.43 0.44 0.43 0.37 0.43 0.39 0.36 0.34 0.31 0.32 0.31 0.32 0.36 0.37 0.36 0.28 0.31 0.29 0.25 0.24 0.30 0.38 0.37 0.37 0.33 0.39 0.42 0.39 0.36 0.37 0.38 0.39 0.33 0.30 0.34 0.26 0.28 0.29 0.27 0.27 0.28 0.29 0.28 0.31 0.29 0.37 0.40 0.42 0.44 0.45 0.46 0.46 0.48 0.48 0.50 0.49 0.47 0.46 0.47 0.48
0.80 0.77 0.82 0.76 0.78 0.86 0.94 1.03 1.04 1.04 0.93 0.74 0.54 0.43 0.35 0.36 0.34 0.41 0.39 0.48 0.48 0.42 0.44 0.46 0.44 0.37 0.37 0.37 0.42 0.38 0.46 0.37 0.40 0.38 0.37 0.38 0.38 0.34 0.37 0.37 0.36 0.38 0.35 0.29 0.31 0.24 0.27 0.23 0.30 0.36 0.40 0.39 0.40 0.41 0.40 0.40 0.24 0.32 0.32 0.26 0.28 0.36 0.33 0.29 0.30 0.32 0.33 0.30 0.25 0.31 0.30 0.31 0.36 0.37 0.39 0.41 0.44 0.43 0.44 0.46 0.47 0.48 0.50 0.50 0.49 0.50 0.50 0.51
0.66 0.69 0.60 0.64 0.66 0.76 0.85 0.94 0.98 0.92 0.81 0.62 0.46 0.35 0.40 0.43 0.46 0.44 0.50 0.46 0.48 0.48 0.44 0.33 0.35 0.33 0.33 0.31 0.34 0.37 0.39 0.41 0.38 0.36 0.31 0.38 0.33 0.36 0.35 0.37 0.42 0.40 0.39 0.36 0.31 0.37 0.26 0.25 0.33 0.33 0.33 0.42 0.44 0.43 0.40 0.39 0.37 0.33 0.26 0.28 0.36 0.40 0.37 0.30 0.24 0.29 0.27 0.23 0.24 0.28 0.25 0.26 0.28 0.24 0.36 0.39 0.40 0.40 0.43 0.44 0.47 0.49 0.49 0.49 0.49 0.50 0.51 0.52
0.64 0.62 0.61 0.59 0.62 0.72 0.79 0.89 0.91 0.85 0.70 0.54 0.41 0.38 0.47 0.39 0.49 0.46 0.51 0.48 0.47 0.48 0.40 0.35 0.34 0.36 0.29 0.28 0.27 0.32 0.37 0.31 0.33 0.35 0.29 0.34 0.26 0.38 0.30 0.31 0.37 0.38 0.41 0.45 0.36 0.36 0.38 0.26 0.29 0.33 0.34 0.37 0.39 0.36 0.32 0.37 0.41 0.33 0.31 0.42 0.30 0.26 0.26 0.32 0.30 0.23 0.23 0.23 0.25 0.28 0.28 0.27 0.28 0.27 0.33 0.36 0.37 0.38 0.42 0.45 0.46 0.47 0.48 0.48 0.49 0.50 0.51 0.52
0.59 0.56 0.49 0.59 0.72 0.76 0.77 0.85 0.83 0.74 0.58 0.45 0.39 0.37 0.47 0.46 0.53 0.50 0.53 0.52 0.50 0.43 0.36 0.36 0.29 0.34 0.29 0.26 0.28 0.32 0.33 0.27 0.34 0.31 0.27 0.31 0.25 0.36 0.33 0.38 0.35 0.40 0.42 0.41 0.35 0.36 0.38 0.27 0.27 0.33 0.30 0.33 0.34 0.30 0.21 0.26 0.35 0.39 0.41 0.37 0.41 0.35 0.31 0.29 0.30 0.31 0.29 0.22 0.23 0.23 0.27 0.23 0.28 0.29 0.35 0.35 0.37 0.39 0.42 0.43 0.44 0.46 0.48 0.48 0.49 0.50 0.50 0.51
0.48 0.41 0.37 0.68 0.79 0.76 0.80 0.80 0.67 0.62 0.49 0.35 0.36 0.38 0.47 0.42 0.45 0.48 0.49 0.47 0.42 0.36 0.33 0.30 0.34 0.26 0.28 0.27 0.29 0.25 0.33 0.31 0.30 0.30 0.30 0.30 0.27 0.37 0.31 0.42 0.34 0.37 0.40 0.41 0.36 0.39 0.31 0.36 0.22 0.30 0.33 0.32 0.23 0.27 0.24 0.27 0.27 0.31 0.32 0.31 0.33 0.33 0.38 0.36 0.35 0.29 0.26 0.24 0.23 0.22 0.21 0.25 0.30 0.37 0.36 0.36 0.39 0.41 0.42 0.43 0.45 0.46 0.48 0.49 0.50 0.50 0.51 0.51
0.46 0.35 0.36 0.66 0.71 0.72 0.73 0.65 0.51 0.44 0.40 0.42 0.42 0.39 0.41 0.37 0.39 0.41 0.44 0.45 0.40 0.47 0.35 0.34 0.31 0.26 0.27 0.25 0.25 0.30 0.28 0.29 0.30 0.28 0.30 0.31 0.29 0.22 0.35 0.29 0.32 0.28 0.35 0.34 0.31 0.33 0.28 0.29 0.20 0.23 0.22 0.23 0.24 0.33 0.33 0.34 0.35 0.33 0.33 0.32 0.35 0.32 0.28 0.24 0.22 0.29 0.26 0.24 0.21 0.21 0.19 0.25 0.33 0.37 0.36 0.36 0.40 0.42 0.43 0.43 0.44 0.45 0.47 0.49 0.51 0.52 0.52 0.52
0.31 0.20 0.30 0.62 0.68 0.64 0.50 0.35 0.36 0.41 0.37 0.31 0.28 0.31 0.30 0.37 0.32 0.32 0.39 0.44 0.42 0.37 0.44 0.35 0.35 0.30 0.30 0.28 0.29 0.31 0.30 0.28 0.29 0.27 0.29 0.23 0.28 0.28 0.33 0.39 0.38 0.39 0.31 0.26 0.26 0.34 0.32 0.32 0.27 0.22 0.23 0.23 0.27 0.35 0.41 0.42 0.42 0.40 0.39 0.35 0.38 0.36 0.34 0.28 0.19 0.21 0.28 0.28 0.29 0.27 0.24 0.24 0.38 0.39 0.38 0.39 0.39 0.41 0.42 0.42 0.42 0.42 0.44 0.45 0.47 0.48 0.50 0.50
0.21 0.15 0.48 0.54 0.62 0.54 0.39 0.27 0.30 0.31 0.28 0.30 0.37 0.34 0.36 0.33 0.30 0.35 0.31 0.36 0.33 0.39 0.35 0.33 0.30 0.28 0.31 0.28 0.29 0.27 0.29 0.25 0.26 0.22 0.26 0.27 0.29 0.34 0.38 0.39 0.40 0.38 0.37 0.35 0.37 0.39 0.39 0.29 0.24 0.26 0.31 0.33 0.34 0.37 0.39 0.41 0.39 0.35 0.37 0.37 0.34 0.29 0.30 0.28 0.27 0.30 0.26 0.25 0.23 0.24 0.22 0.27 0.36 0.38 0.38 0.42 0.44 0.44 0.45 0.44 0.43 0.43 0.43 0.44 0.44 0.44 0.44 0.45
0.20 0.19 0.30 0.48 0.59 0.54 0.31 0.16 0.17 0.22 0.24 0.29 0.30 0.28 0.35 0.32 0.30 0.29 0.30 0.34 0.31 0.32 0.29 0.30 0.31 0.33 0.28 0.34 0.31 0.25 0.30 0.20 0.29 0.25 0.25 0.31 0.29 0.39 0.41 0.42 0.44 0.38 0.38 0.36 0.33 0.43 0.28 0.31 0.31 0.25 0.25 0.26 0.28 0.31 0.32 0.39 0.38 0.35 0.33 0.36 0.36 0.36 0.34 0.34 0.33 0.33 0.25 0.26 0.25 0.22 0.17 0.23 0.36 0.45 0.42 0.45 0.45 0.44 0.44 0.45 0.46 0.43 0.42 0.41 0.40 0.40 0.40 0.41
0.17 0.21 0.27 0.34 0.49 0.46 0.25 0.25 0.20 0.19 0.20 0.21 0.22 0.21 0.23 0.29 0.31 0.30 0.30 0.29 0.35 0.33 0.30 0.28 0.30 0.33 0.31 0.35 0.31 0.32 0.34 0.28 0.25 0.32 0.30 0.31 0.31 0.38 0.39 0.39 0.41 0.38 0.42 0.45 0.44 0.47 0.35 0.32 0.30 0.21 0.17 0.15 0.15 0.15 0.18 0.23 0.29 0.34 0.35 0.35 0.36 0.34 0.32 0.31 0.25 0.28 0.23 0.28 0.29 0.24 0.24 0.32 0.40 0.43 0.41 0.39 0.39 0.39 0.40 0.41 0.41 0.40 0.38 0.38 0.37 0.37 0.37 0.37
0.11 0.06 0.19 0.25 0.34 0.37 0.33 0.35 0.30 0.23 0.20 0.22 0.21 0.22 0.24 0.22 0.27 0.33 0.31 0.29 0.32 0.34 0.32 0.31 0.34 0.33 0.29 0.28 0.25 0.24 0.24 0.31 0.27 0.25 0.24 0.24 0.30 0.35 0.39 0.41 0.42 0.41 0.43 0.42 0.44 0.41 0.35 0.36 0.33 0.29 0.25 0.22 0.24 0.27 0.32 0.34 0.31 0.25 0.27 0.28 0.28 0.30 0.31 0.31 0.30 0.25 0.21 0.23 0.23 0.25 0.25 0.25 0.28 0.31 0.32 0.35 0.35 0.35 0.35 0.35 0.34 0.34 0.35 0.35 0.35 0.34 0.32 0.30
0.18 0.08 0.14 0.15 0.27 0.29 0.25 0.31 0.27 0.27 0.20 0.24 0.18 0.21 0.18 0.20 0.22 0.26 0.31 0.23 0.28 0.27 0.29 0.27 0.27 0.23 0.24 0.23 0.22 0.22 0.23 0.23 0.28 0.26 0.24 0.24 0.30 0.34 0.38 0.37 0.37 0.38 0.39 0.36 0.37 0.35 0.30 0.25 0.26 0.26 0.26 0.27 0.27 0.28 0.30 0.31 0.26 0.27 0.24 0.22 0.24 0.25 0.25 0.25 0.23 0.20 0.24 0.22 0.18 0.22 0.24 0.23 0.24 0.26 0.27 0.30 0.30 0.30 0.29 0.29 0.29 0.28 0.29 0.29 0.30 0.31 0.30 0.29
0.10 0.13 0.16 0.22 0.18 0.15 0.20 0.22 0.27 0.26 0.28 0.26 0.20 0.23 0.18 0.18 0.20 0.17 0.26 0.31 0.30 0.34 0.25 0.30 0.29 0.27 0.26 0.23 0.25 0.20 0.23 0.23 0.25 0.21 0.25 0.27 0.27 0.31 0.29 0.32 0.30 0.31 0.32 0.31 0.33 0.27 0.22 0.17 0.19 0.19 0.19 0.21 0.21 0.21 0.23 0.22 0.23 0.22 0.22 0.21 0.19 0.20 0.21 0.19 0.19 0.22 0.21 0.18 0.15 0.17 0.18 0.17 0.19 0.21 0.23 0.24 0.24 0.24 0.23 0.23 0.23 0.23 0.24 0.25 0.25 0.26 0.25 0.23
0.17 0.17 0.18 0.25 0.15 0.18 0.22 0.24 0.26 0.26 0.26 0.27 0.23 0.22 0.18 0.18 0.18 0.24 0.24 0.25 0.27 0.27 0.28 0.19 0.22 0.26 0.26 0.27 0.24 0.20 0.22 0.17 0.16 0.22 0.22 0.22 0.23 0.23 0.21 0.23 0.26 0.27 0.24 0.23 0.24 0.24 0.19 0.15 0.15 0.18 0.16 0.16 0.16 0.16 0.18 0.18 0.18 0.18 0.17 0.17 0.17 0.16 0.14 0.16 0.17 0.18 0.18 0.18 0.19 0.17 0.16 0.16 0.17 0.18 0.19 0.19 0.21 0.20 0.21 0.22 0.22 0.21 0.21 0.22 0.23 0.24 0.23 0.22
0.16 0.14 0.13 0.22 0.20 0.19 0.20 0.23 0.24 0.23 0.21 0.26 0.21 0.21 0.22 0.19 0.17 0.24 0.29 0.26 0.22 0.25 0.34 0.24 0.26 0.27 0.29 0.29 0.29 0.23 0.24 0.24 0.23 0.19 0.24 0.22 0.21 0.21 0.18 0.18 0.17 0.20 0.20 0.18 0.19 0.24 0.18 0.13 0.19 0.18 0.16 0.15 0.16 0.17 0.18 0.18 0.17 0.15 0.16 0.17 0.16 0.15 0.15 0.16 0.16 0.16 0.16 0.16 0.17 0.16 0.14 0.12 0.15 0.17 0.17 0.19 0.19 0.20 0.19 0.19 0.19 0.20 0.20 0.21 0.21 0.22 0.21 0.21
0.21 0.27 0.24 0.17 0.14 0.16 0.18 0.20 0.20 0.20 0.19 0.21 0.19 0.21 0.22 0.22 0.20 0.24 0.24 0.29 0.24 0.22 0.25 0.23 0.26 0.25 0.27 0.25 0.24 0.23 0.26 0.25 0.25 0.23 0.25 0.23 0.16 0.22 0.16 0.18 0.20 0.16 0.19 0.18 0.20 0.21 0.20 0.15 0.19 0.18 0.14 0.13 0.15 0.16 0.17 0.18 0.17 0.16 0.15 0.14 0.13 0.13 0.13 0.13 0.13 0.15 0.14 0.12 0.11 0.10 0.09 0.10 0.17 0.19 0.19 0.18 0.18 0.17 0.16 0.17 0.18 0.19 0.19 0.19 0.18 0.19 0.20 0.20
0.26 0.28 0.27 0.19 0.11 0.18 0.15 0.18 0.17 0.16 0.13 0.17 0.20 0.20 0.20 0.21 0.23 0.24 0.20 0.26 0.26 0.26 0.25 0.24 0.24 0.22 0.20 0.20 0.19 0.21 0.25 0.25 0.24 0.25 0.26 0.26 0.26 0.26 0.27 0.25 0.26 0.22 0.21 0.21 0.24 0.21 0.21 0.20 0.17 0.16 0.13 0.12 0.15 0.16 0.15 0.15 0.13 0.11 0.09 0.10 0.12 0.13 0.13 0.12 0.10 0.09 0.07 0.07 0.07 0.06 0.07 0.14 0.16 0.18 0.16 0.17 0.18 0.17 0.17 0.17 0.16 0.17 0.17 0.18 0.18 0.18 0.19 0.19
Wind_Speed
10 10 10 10 10 10 10 10 10 10 10 10 11 11 11 11 11 11 11 12 12 12 12 12 13 13 13 13 13 14 14 14 14 14 14 13 12 12 12 12 12 13 13 13 13 13 13 13 13 14 14 14 15 15 14 15 14 15 16 16 17 17 17 16 17 17 17 18 18 16 16 18 18 17 17 17 17 18 19 19 19 18 19 20 19 18 17 17
12 12 12 12 12 12 12 12 12 12 12 12 12 12 12 13 13 13 13 13 14 14 14 14 14 15 15 15 15 15 15 16 16 17 16 14 12 12 13 13 13 13 14 14 14 14 14 15 15 15 15 15 16 15 16 16 16 16 17 18 18 18 17 16 18 18 17 20 20 18 17 17 19 18 16 17 18 17 18 20 19 19 20 21 20 19 18 17
14 14 14 14 14 14 14 14 14 14 14 14 14 14 14 15 15 15 15 15 15 16 16 16 16 16 16 16 16 16 17 17 18 17 15 12 12 13 14 14 13 13 14 15 15 16 16 16 15 16 16 16 16 16 17 16 17 17 17 19 19 19 18 17 19 19 19 21 21 20 18 18 19 18 16 18 19 18 19 20 19 19 20 20 19 18 18 18
15 15 15 15 15 15 15 15 15 16 16 16 16 16 16 16 17 17 17 17 17 17 18 18 18 18 18 18 18 17 18 18 18 16 13 13 14 14 15 15 14 15 15 16 16 16 16 16 16 17 17 17 17 17 18 17 17 17 17 20 19 18 19 19 19 20 20 20 21 20 19 19 19 18 17 17 19 19 19 20 21 21 21 20 20 18 18 19
17 17 16 17 17 17 17 17 17 17 17 17 17 17 18 18 18 18 18 19 19 19 19 19 19 19 19 19 18 18 17 17 16 14 14 15 16 17 16 16 16 16 16 16 16 17 17 17 17 17 18 18 17 17 18 18 18 18 19 21 20 18 20 20 19 20 20 20 20 20 19 19 18 18 18 18 19 20 20 21 22 23 23 22 22 20 19 20
18 18 18 18 18 18 18 18 18 18 18 18 18 19 19 19 19 19 19 20 20 20 20 20 20 20 20 19 18 17 17 17 16 16 16 17 18 18 17 17 16 16 16 17 17 17 18 18 18 18 18 18 18 19 19 18 18 20 20 21 22 20 21 21 19 19 20 20 20 20 20 20 20 20 19 18 21 23 24 24 25 25 24 23 23 22 21 21
18 18 18 18 18 19 18 18 18 19 19 19 19 19 20 20 20 20 20 20 20 20 20 20 20 20 20 19 18 17 17 19 20 19 19 19 20 19 18 17 17 17 17 17 17 18 18 18 19 18 18 19 19 19 19 19 19 21 22 21 21 21 22 23 21 20 21 22 22 22 23 23 23 22 19 18 21 25 26 27 27 27 26 24 23 23 23 22
19 19 19 19 19 19 19 19 19 19 19 19 19 20 20 20 21 21 21 21 21 21 21 21 21 21 20 19 18 18 18 21 21 20 19 19 19 18 17 17 17 18 18 18 18 18 19 19 20 19 20 20 20 20 19 20 21 22 23 22 21 21 22 23 22 22 23 24 24 24 25 26 25 23 21 22 23 25 27 27 26 26 25 24 24 24 23 22
20 19 19 19 19 20 20 20 20 20 20 20 20 21 21 21 22 22 22 23 22 23 22 22 22 21 20 19 18 18 18 20 19 19 18 18 18 17 17 18 19 19 19 19 19 19 20 21 21 21 22 21 20 20 19 21 22 21 23 23 22 23 24 24 24 24 24 25 24 24 26 27 25 22 23 25 24 25 25 25 25 24 24 24 24 24 23 23
21 21 20 20 20 20 20 21 21 21 21 21 21 22 22 22 23 23 24 24 24 24 23 23 22 21 21 19 18 18 18 19 18 18 18 18 19 19 19 20 20 20 20 20 20 21 21 22 21 21 22 21 21 21 19 21 22 21 23 24 24 25 25 24 25 25 25 26 24 25 27 27 23 20 23 22 20 21 22 23 24 23 23 24 23 24 23 24
22 21 21 21 21 21 21 22 22 22 22 22 22 23 23 23 24 24 24 24 24 24 24 24 23 22 21 20 20 19 19 20 20 20 20 20 21 21 21 21 21 21 20 21 21 22 22 22 20 20 21 21 21 21 21 22 23 23 23 25 26 27 27 25 26 25 24 25 23 24 27 27 22 21 24 25 21 21 22 24 24 24 24 24 24 24 23 23
22 22 22 22 22 22 22 22 22 23 23 23 23 23 24 24 24 25 25 25 25 24 24 23 23 22 22 22 22 21 21 22 21 21 22 22 22 22 22 22 22 22 22 22 22 23 22 22 21 22 22 21 21 22 22 22 23 24 24 26 27 27 28 26 25 24 22 23 21 22 26 26 23 23 26 28 25 24 24 25 26 25 25 24 24 23 23 24
23 23 23 23 23 23 23 23 23 23 23 24 24 24 24 25 25 25 25 25 25 25 24 24 23 23 23 22 22 22 22 22 22 23 23 23 23 23 23 23 23 23 24 24 23 23 23 23 23 24 23 23 23 22 22 22 22 25 24 25 27 27 27 23 21 21 21 22 20 22 26 26 24 25 27 26 25 25 24 25 26 26 25 25 25 24 25 25
24 24 24 24 24 23 24 24 24 24 24 24 25 25 25 26 25 25 25 25 25 25 24 24 24 24 24 23 22 23 23 23 23 24 24 24 24 23 24 24 24 24 24 24 24 24 24 24 24 24 24 24 24 23 24 23 23 25 25 24 26 27 25 20 18 20 22 22 21 24 29 29 26 26 26 24 24 25 25 26 26 26 25 26 26 26 27 28
25 24 24 24 24 24 24 24 25 25 25 25 25 26 26 26 25 25 25 25 24 24 24 24 24 24 25 24 23 23 23 23 23 24 24 24 24 24 23 24 24 24 24 24 24 24 24 23 23 24 24 24 24 25 25 25 24 24 25 26 25 26 27 24 22 22 24 24 23 26 29 29 28 27 26 24 23 25 26 27 27 27 27 27 28 28 29 29
25 25 25 25 25 25 25 25 25 25 26 25 26 26 26 25 24 24 24 24 24 24 24 24 24 25 25 24 23 23 23 23 24 24 24 24 24 24 23 23 23 23 23 23 24 23 23 23 24 25 25 24 24 25 26 26 26 25 26 28 27 28 29 27 25 23 23 24 26 28 30 30 29 28 27 25 25 26 27 29 30 30 29 28 29 29 30 30
26 26 26 25 25 25 26 26 26 26 26 26 26 26 25 24 24 24 24 24 24 23 24 25 24 25 26 25 24 23 23 23 23 23 23 24 24 23 22 22 22 22 22 23 23 23 23 24 25 25 25 25 23 24 26 26 27 26 26 28 28 29 30 29 27 23 21 25 28 30 32 34 32 31 31 29 29 30 30 31 31 30 30 29 30 29 29 29
26 26 26 26 26 26 26 26 26 26 26 26 26 26 25 25 25 24 24 24 24 24 24 24 24 25 25 24 23 23 23 23 24 24 24 24 24 24 23 24 24 23 23 23 24 24 25 25 26 26 25 25 24 25 27 27 28 29 27 28 29 29 30 31 30 26 25 28 30 31 33 35 34 32 32 31 31 32 32 32 31 30 30 30 29 28 28 28
27 27 26 26 26 27 27 27 26 26 26 26 26 25 25 25 25 25 25 25 25 25 25 24 25 26 25 26 26 26 26 26 26 26 25 24 24 24 24 24 24 24 24 25 25 25 26 26 27 27 26 26 27 27 30 30 30 29 29 30 31 32 32 32 31 29 29 32 33 33 35 36 35 33 32 31 31 32 32 32 30 30 29 29 28 27 26 26
28 27 27 27 27 27 27 27 26 26 26 26 26 26 25 25 26 26 26 27 27 28 28 28 29 30 30 30 29 28 28 27 27 26 25 24 24 24 24 24 25 25 26 25 26 26 26 28 28 28 28 29 29 28 30 31 29 29 30 31 32 33 34 32 33 31 28 31 34 33 36 37 36 34 33 33 32 31 31 31 30 29 28 27 27 25 22 21
28 28 28 28 28 28 27 27 26 27 27 26 26 26 26 26 27 27 28 30 30 30 31 31 31 32 32 31 29 29 28 27 27 25 24 24 24 24 25 25 25 26 26 25 25 25 27 29 29 29 30 29 27 27 29 30 31 31 32 33 33 33 35 34 33 32 28 30 33 33 36 37 36 36 35 33 32 30 29 28 27 27 27 25 23 20 19 20
29 29 29 29 30 29 28 28 27 28 28 27 26 26 26 27 28 29 29 31 31 31 32 32 32 33 33 32 31 30 29 28 27 25 25 24 24 25 25 25 26 27 25 25 26 26 28 30 30 30 29 27 26 26 27 29 31 31 31 32 33 33 35 35 32 30 28 29 33 34 36 37 36 36 35 32 29 26 24 24 25 27 26 23 20 19 20 22
30 29 29 30 30 30 30 29 29 29 28 27 27 26 27 28 28 29 29 31 31 30 30 31 31 32 31 30 30 29 29 29 28 27 26 25 25 26 26 26 27 26 26 27 28 29 30 29 30 30 29 28 29 28 28 31 31 32 32 33 34 33 33 33 30 28 27 29 33 34 36 35 33 30 28 25 21 20 23 26 28 27 24 21 19 19 19 18
29 29 29 28 28 29 29 29 29 28 27 27 26 26 26 27 27 28 28 29 30 29 27 27 27 28 27 26 25 25 25 25 25 24 24 25 25 24 26 26 27 27 28 29 30 32 32 29 28 29 29 29 31 30 29 31 32 32 31 32 34 33 32 33 32 30 31 30 30 32 34 30 25 21 19 18 18 21 27 28 25 21 18 18 17 16 16 16
29 28 28 27 26 26 26 27 27 26 26 26 26 25 25 26 26 27 28 28 28 27 25 24 23 23 21 20 20 19 19 19 19 19 19 21 21 21 23 24 25 27 27 28 29 31 31 28 26 27 27 27 29 29 29 30 31 32 30 30 33 33 33 34 32 31 31 29 26 28 30 26 22 22 23 24 26 29 29 25 21 17 16 15 15 15 15 14
28 28 27 27 27 26 26 26 25 25 25 25 25 25 25 25 25 26 26 27 27 25 23 21 20 18 18 17 17 16 17 17 17 18 18 19 20 20 21 21 22 24 24 24 26 27 27 25 24 25 25 24 25 28 27 27 30 31 28 28 30 32 32 32 31 30 29 28 27 27 27 28 28 28 28 29 29 29 26 22 20 17 15 14 15 15 14 12
28 28 28 28 28 27 27 26 26 26 26 26 25 25 25 24 24 25 25 25 24 22 19 19 17 17 18 18 18 18 18 18 19 19 20 20 20 20 22 21 21 22 22 23 25 25 24 23 23 24 24 24 26 27 26 25 28 30 27 26 28 29 30 30 30 30 31 32 31 28 27 31 32 29 28 28 26 26 24 20 17 15 14 14 13 13 13 13
28 28 28 29 29 29 28 27 27 27 27 26 26 25 25 24 25 24 24 24 22 20 18 18 18 18 19 19 19 20 20 20 20 20 20 21 21 21 23 23 23 22 22 24 26 25 24 24 24 24 25 26 27 27 24 24 28 29 27 27 27 28 29 29 30 31 31 32 31 27 25 29 32 28 26 25 24 23 20 16 14 13 13 13 13 13 14 13
27 28 28 28 28 28 28 28 27 27 27 27 26 26 25 25 25 24 23 23 23 21 20 20 20 20 20 20 21 21 21 21 21 21 21 22 22 22 23 24 24 24 24 26 28 26 24 25 25 25 26 27 26 24 24 25 27 27 26 27 27 27 29 29 31 31 31 32 31 28 26 29 31 27 24 24 23 20 16 14 14 14 14 15 15 16 16 14
27 28 28 28 28 28 28 28 28 27 27 27 26 26 26 26 25 25 25 25 23 22 22 23 23 22 22 22 22 22 22 23 22 22 23 23 23 23 23 24 24 25 26 27 29 28 25 25 27 27 27 27 24 24 25 25 25 25 26 28 28 28 29 29 30 29 29 31 30 27 27 28 29 25 22 21 19 17 16 16 18 18 16 18 18 17 17 17
27 27 28 28 28 28 28 28 28 28 27 27 26 26 26 26 25 26 27 26 25 24 24 24 24 22 22 23 23 23 23 23 23 23 23 23 24 24 24 25 25 26 27 28 30 29 28 28 29 29 28 27 25 26 27 26 26 27 27 28 29 28 27 27 27 26 28 29 26 25 26 27 29 25 22 21 19 19 21 22 25 23 19 18 19 18 19 19
29 29 29 29 30 29 29 29 28 28 28 27 27 27 26 26 27 28 28 26 25 25 24 24 23 23 23 24 25 24 24 25 25 26 26 26 27 26 27 27 27 28 30 30 30 31 31 32 31 30 30 29 29 28 28 28 28 28 28 28 27 26 26 27 26 25 27 28 26 26 26 28 32 30 28 29 27 25 26 26 26 23 19 18 19 20 21 23
33 32 32 32 31 30 30 29 29 29 28 28 28 27 26 28 29 28 28 27 25 24 24 25 25 26 26 27 28 27 28 29 28 29 29 29 30 31 31 31 30 31 33 32 32 33 33 32 31 31 31 30 29 29 29 28 27 27 27 26 25 24 26 27 26 26 28 28 27 28 28 30 33 32 30 32 29 27 27 26 23 20 19 21 23 24 24 24
34 34 34 33 33 32 31 30 30 29 29 28 28 27 28 31 31 28 29 29 28 27 28 28 28 29 30 31 32 31 32 32 30 31 31 31 32 33 33 32 31 32 33 33 34 33 33 34 32 30 30 29 30 30 29 27 28 29 29 28 28 28 28 28 27 28 31 31 29 28 29 31 31 28 27 27 25 25 25 25 23 22 23 25 26 25 24 23
35 35 35 35 34 34 33 31 31 30 30 29 28 29 32 34 32 31 32 32 31 31 30 29 30 32 33 33 33 33 33 33 31 31 31 32 32 32 32 32 31 30 31 32 32 32 34 36 33 31 31 30 31 30 28 28 29 30 30 30 31 31 30 30 31 31 32 32 31 31 32 34 35 34 35 34 29 27 28 28 27 26 25 24 23 22 22 22
36 36 36 36 36 36 35 34 33 32 32 31 31 34 36 36 33 32 32 31 31 30 30 31 31 33 35 34 33 32 32 32 31 31 32 32 33 33 33 32 31 31 31 31 32 31 33 35 33 32 32 31 30 30 30 31 31 30 30 31 32 31 30 32 33 31 31 32 33 33 35 37 38 38 37 34 29 28 29 27 26 25 23 22 23 23 24 25
36 37 37 37 37 37 36 36 34 34 34 33 35 38 38 37 36 35 33 32 32 31 31 32 32 32 33 32 31 31 31 31 31 31 32 32 32 32 32 32 31 32 32 32 33 32 34 36 35 34 34 32 32 32 33 33 33 31 31 32 31 30 30 31 30 28 29 32 33 34 37 37 34 33 31 27 25 26 27 26 25 25 24 24 25 26 27 27
37 37 37 37 37 37 36 35 34 34 33 34 38 40 37 36 36 34 33 33 33 33 33 34 33 32 33 33 33 32 32 32 31 31 32 32 32 31 31 32 31 32 33 32 33 33 33 36 36 35 35 33 32 34 34 33 33 33 33 32 31 30 30 29 29 28 30 32 31 32 36 37 35 36 34 30 29 30 30 29 29 28 28 28 29 29 29 28
37 37 37 37 36 36 36 35 34 34 34 36 38 38 36 36 36 35 34 34 34 33 34 35 35 34 34 34 34 33 33 33 32 32 32 32 32 30 29 31 30 30 31 30 32 33 32 34 35 34 34 34 33 35 35 33 32 32 33 33 31 31 32 31 30 29 31 33 33 32 33 34 36 36 33 32 32 32 31 31 31 31 31 32 32 33 33 32
37 36 36 36 35 35 35 35 35 36 36 37 38 37 36 37 37 36 36 36 36 35 35 36 35 36 36 35 35 34 34 34 34 35 34 33 34 33 30 30 31 31 31 31 33 33 33 34 35 34 34 35 35 34 34 33 32 32 32 32 31 32 32 32 33 32 33 34 34 33 34 34 34 34 32 33 33 33 33 33 33 33 33 33 34 34 34 34
36 35 35 35 34 34 34 34 36 37 38 38 39 39 38 38 37 37 37 37 36 36 35 35 35 35 35 35 35 34 33 34 34 35 35 35 36 35 31 31 33 33 32 33 33 34 34 35 36 36 36 37 36 34 33 33 33 33 33 32 33 33 33 34 35 35 35 35 34 34 36 35 34 34 34 34 34 34 34 34 34 34 34 35 34 34 34 34
35 34 34 34 34 33 33 34 36 36 38 38 37 37 37 36 36 37 36 36 35 35 34 34 34 35 34 35 35 34 34 35 36 35 35 35 36 35 33 33 34 33 34 35 34 34 35 35 37 39 39 40 40 36 35 36 36 36 36 36 36 36 36 36 36 35 35 36 35 35 36 34 33 33 33 34 34 33 33 33 34 35 36 37 37 36 35 35
34 33 33 33 33 33 33 34 35 36 37 36 35 35 35 34 34 34 34 34 34 34 34 34 34 35 35 35 35 35 35 35 36 37 36 36 36 34 33 33 33 33 34 35 34 33 34 35 37 38 38 39 40 36 34 35 35 35 36 35 36 37 37 38 38 36 35 35 35 35 35 33 31 31 30 29 30 30 31 32 33 35 36 37 37 37 37 37
33 33 33 32 33 34 34 34 34 35 36 35 35 36 36 35 34 34 34 34 34 33 33 34 34 34 34 33 33 35 34 34 35 35 34 34 33 32 32 32 32 32 33 33 33 32 32 33 33 33 32 33 34 33 32 31 31 31 32 33 33 34 36 36 36 35 33 34 35 35 34 32 30 29 28 27 27 28 30 31 32 34 35 36 37 38 39 40
32 32 32 32 33 34 35 34 34 35 35 35 36 36 36 36 35 35 35 35 34 33 33 34 33 33 33 32 33 34 34 34 34 33 33 34 33 32 32 32 32 31 31 32 32 32 32 32 32 31 31 31 32 32 32 31 31 31 32 33 32 33 34 35 35 34 33 33 34 33 33 33 32 32 33 33 32 32 32 33 34 36 37 38 39 40 41 42
31 32 32 32 33 34 34 33 33 34 34 34 35 35 36 37 34 33 34 36 36 35 35 35 34 33 34 34 35 36 36 35 35 35 35 35 34 33 32 32 32 31 31 32 32 32 32 33 34 35 36 36 37 37 36 35 36 37 37 38 37 37 37 37 37 37 36 36 37 37 39 41 40 40 41 39 37 37 37 38 39 39 40 41 41 42 43 43
32 32 32 31 32 33 34 33 33 33 33 33 34 34 35 37 35 34 33 34 34 34 35 35 34 34 35 35 35 36 36 35 35 35 36 35 34 33 33 32 32 33 33 33 34 33 34 36 37 37 39 39 41 42 39 37 38 39 41 43 43 42 41 41 41 41 40 40 40 41 43 44 44 45 46 43 40 40 41 41 42 42 43 43 44 44 45 45
32 32 32 32 32 33 33 33 33 33 33 33 33 33 34 35 35 34 33 32 32 33 33 33 34 35 35 34 33 34 34 33 33 33 33 33 32 32 32 32 32 33 33 34 34 34 35 38 38 38 39 40 41 41 40 39 39 40 42 44 45 45 45 44 44 45 44 43 44 45 47 49 48 48 46 43 42 42 43 42 43 43 44 44 45 45 45 45
33 32 32 32 32 32 32 32 31 32 33 33 33 34 34 34 34 33 31 31 32 32 32 33 32 32 33 32 32 32 33 32 32 32 31 32 32 33 34 34 33 33 33 34 35 34 35 37 36 36 38 39 40 41 40 40 41 42 43 44 45 47 47 46 46 46 46 46 47 48 50 52 49 45 42 41 41 42 42 42 42 42 43 43 44 45 45 46
33 33 32 32 32 31 31 31 31 32 33 33 34 34 33 34 35 33 31 32 33 32 32 32 31 30 30 30 31 32 32 31 32 33 32 32 34 33 34 35 34 34 34 34 34 34 35 35 34 34 36 38 40 41 40 40 42 43 44 45 47 48 48 47 47 46 46 47 48 48 49 49 44 40 39 40 40 41 41 42 42 42 43 43 44 45 45 46
33 33 32 32 32 31 31 32 31 32 33 33 34 34 33 34 35 33 32 33 33 34 33 33 32 31 31 32 33 34 33 32 33 34 33 34 35 35 34 34 33 33 34 33 33 33 34 34 34 35 36 38 40 40 40 41 42 44 46 47 48 47 46 46 45 44 45 46 47 47 45 43 40 38 39 39 40 41 42 42 42 42 42 43 44 45 46 46
33 33 32 32 32 32 31 31 32 33 33 33 33 33 33 34 33 33 34 33 32 32 33 32 32 33 34 35 34 34 33 33 33 34 34 34 35 35 35 34 34 34 33 32 33 33 33 34 35 35 36 39 40 38 37 38 39 42 44 45 45 45 45 44 44 44 45 44 44 44 42 40 38 38 39 39 39 40 41 42 42 43 43 44 45 46 46 46
Wind_Direction
265 266 268 269 271 273 274 275 276 277 278 278 279 280 280 281 282 283 284 285 286 287 289 290 291 292 293 294 295 295 295 292 288 284 282 280 278 278 278 278 272 266 268 270 271 274 277 277 278 280 280 282 286 286 286 287 286 285 288 289 289 291 292 293 289 290 297 298 295 293 290 289 293 294 295 295 290 286 288 286 282 280 280 278 280 283 283 283
265 266 268 269 270 271 272 273 274 275 276 277 278 278 279 280 281 282 282 283 284 285 286 287 288 290 291 292 293 294 293 291 287 283 279 276 277 279 279 277 272 268 268 269 269 272 275 276 277 278 279 282 286 286 285 286 285 285 288 288 288 290 293 292 289 290 292 294 295 294 291 289 292 296 297 294 290 287 286 285 281 278 278 278 278 279 280 280
266 267 268 269 270 271 272 273 274 275 275 277 277 278 279 279 280 281 281 282 283 284 284 285 286 287 289 289 291 291 291 289 286 283 276 272 277 282 280 274 272 270 271 273 272 273 276 277 276 277 279 283 286 286 285 285 284 285 287 287 287 289 291 290 288 288 288 292 294 293 293 291 292 294 294 293 291 286 282 282 281 278 278 280 280 278 279 278
267 268 269 270 271 272 272 273 274 275 276 277 278 278 279 279 280 280 281 281 282 283 283 284 284 285 286 287 288 288 289 287 284 279 271 270 278 283 280 274 272 272 275 277 275 275 278 278 277 279 280 282 285 285 284 283 285 286 284 285 290 292 291 288 285 285 288 291 292 292 294 293 293 292 290 291 290 285 281 279 279 280 282 285 283 281 280 278
268 269 270 271 271 272 273 274 275 276 276 277 278 279 279 280 280 280 281 281 282 282 282 283 284 284 285 286 285 285 286 285 281 276 270 273 280 282 280 275 272 273 275 276 275 275 277 277 277 279 280 281 283 283 282 280 283 286 282 283 288 290 291 289 287 288 289 291 290 291 293 295 295 291 287 285 285 284 283 283 283 284 286 286 285 284 283 280
268 270 270 272 272 273 274 274 275 276 276 277 278 278 279 280 280 280 280 281 281 281 282 282 283 284 284 284 282 281 281 280 279 276 274 276 279 279 277 273 271 273 274 275 275 274 275 275 275 277 280 282 280 280 283 281 280 285 283 283 285 286 287 289 291 291 289 288 288 290 293 296 293 291 288 279 278 281 283 286 287 287 287 286 286 285 282 280
268 269 271 272 272 273 274 274 275 276 276 277 278 279 279 280 280 280 280 280 281 281 282 282 283 283 284 283 279 279 276 275 278 278 277 277 277 276 274 272 271 271 272 274 274 274 275 274 274 277 279 281 280 279 283 283 280 284 286 286 286 286 284 286 290 289 288 287 287 290 294 293 289 292 292 280 277 281 283 286 286 287 286 285 285 283 281 279
268 269 270 271 272 274 274 275 276 276 277 278 278 279 279 280 280 280 281 281 281 281 281 282 282 283 283 280 278 278 273 275 280 280 278 276 275 274 272 272 271 271 272 273 274 274 275 273 273 277 278 280 281 281 283 284 281 280 283 286 287 287 285 286 288 287 287 286 287 290 290 287 286 292 293 284 281 282 284 285 285 285 284 283 282 281 280 278
267 269 270 271 272 273 274 275 276 276 277 278 278 279 280 280 281 281 281 281 281 281 281 281 281 281 281 278 277 277 274 278 281 279 277 275 275 273 271 273 271 271 273 274 275 274 274 274 273 275 279 281 281 282 283 282 283 281 282 286 288 288 288 288 288 286 286 287 287 287 285 285 287 292 290 286 284 284 283 284 284 284 283 283 282 280 278 277
267 268 269 270 271 272 273 274 275 276 277 278 278 279 280 280 281 281 282 282 281 281 280 280 280 280 278 276 275 274 276 280 280 278 277 275 275 273 273 274 272 271 274 275 275 274 274 276 277 277 280 282 281 282 282 281 286 288 287 289 288 288 288 288 287 286 286 287 284 283 284 284 287 289 288 290 290 286 284 283 284 284 284 284 283 281 279 277
267 268 269 270 271 272 273 274 275 276 277 278 279 279 280 281 281 282 282 282 281 280 279 279 278 277 275 274 271 272 276 278 278 278 276 275 275 273 273 274 272 271 273 276 275 274 277 278 278 279 281 282 282 283 282 283 287 291 292 290 287 287 288 285 284 285 285 288 285 281 283 284 285 285 283 286 289 287 285 285 285 284 285 285 283 282 281 279
267 268 269 270 271 272 273 274 276 277 278 278 279 280 281 281 282 282 281 281 280 280 279 277 277 276 275 273 270 272 276 276 276 277 277 276 275 275 274 274 273 271 272 275 275 275 277 277 274 275 280 281 283 285 285 286 288 290 290 288 288 288 287 285 284 285 284 289 289 283 284 283 280 279 279 282 284 285 285 284 284 284 285 285 284 283 281 280
266 267 268 270 271 272 273 274 275 276 277 278 279 280 281 282 282 281 281 280 279 278 277 276 275 274 274 273 273 274 274 273 274 275 276 276 276 276 275 274 274 273 273 275 276 275 274 275 273 275 279 280 283 286 286 289 287 286 287 287 289 288 286 285 286 289 288 288 287 284 285 285 281 279 280 283 284 285 284 282 283 283 284 284 283 282 281 281
266 267 268 270 271 272 273 274 275 277 277 278 280 281 282 282 281 281 281 280 279 277 276 275 274 274 273 273 275 275 274 273 273 274 275 275 274 276 276 275 275 274 275 275 276 276 273 274 274 276 278 279 284 286 286 287 285 286 287 285 286 286 285 287 286 289 290 287 283 282 284 286 286 285 286 287 286 285 284 282 283 283 283 282 282 281 281 281
266 267 268 269 270 271 273 274 276 277 278 279 280 281 282 281 280 280 280 279 279 277 276 275 274 274 274 275 275 275 274 274 274 274 274 273 273 275 276 275 275 275 274 274 275 275 274 273 274 276 279 280 283 285 285 285 284 285 286 283 283 284 286 288 286 284 288 289 283 281 284 286 286 288 288 289 287 286 285 284 284 283 282 281 281 281 281 282
266 267 268 269 270 271 273 274 276 277 278 279 281 282 281 280 280 280 279 279 278 276 276 275 274 275 276 276 275 274 274 274 274 274 275 274 273 274 274 273 274 274 274 274 274 274 274 274 275 278 280 281 282 284 285 284 283 283 282 283 284 285 288 291 288 284 286 288 283 280 284 287 288 290 289 287 287 285 284 284 284 284 282 281 281 280 280 281
266 267 268 269 270 271 273 274 276 277 279 280 282 282 280 279 279 279 279 279 278 277 277 276 275 275 275 276 275 274 274 273 273 274 274 275 273 272 272 272 273 273 273 274 273 274 276 275 277 279 279 281 283 284 282 280 282 283 281 282 284 285 288 290 291 290 287 285 284 281 281 285 287 289 289 287 287 285 284 284 284 283 282 281 281 281 280 279
266 267 268 269 270 272 273 274 276 278 279 281 282 281 279 278 278 278 279 279 278 278 278 276 275 275 275 274 275 275 274 273 273 274 274 274 273 270 271 272 271 270 271 273 274 274 275 277 278 277 277 279 281 279 276 276 281 283 283 283 285 285 284 287 290 293 291 285 285 283 283 285 287 287 287 286 286 285 284 284 284 283 282 281 282 281 280 279
265 266 268 268 270 271 272 274 276 278 279 280 280 279 279 278 278 277 277 278 279 278 278 276 274 275 276 276 276 276 275 274 273 274 273 272 271 270 271 271 270 269 270 273 273 272 274 277 275 275 276 277 276 273 272 277 282 284 285 284 285 286 285 286 288 291 291 288 285 284 285 288 289 289 289 288 287 285 284 285 285 284 283 283 282 281 280 279
265 266 268 269 269 270 272 273 274 277 278 279 280 279 277 278 278 276 276 278 279 278 278 276 274 274 276 277 277 276 275 273 273 273 271 270 269 268 270 270 270 270 271 273 273 273 275 273 272 272 275 275 274 273 274 279 284 284 283 283 283 285 286 287 288 290 291 289 286 286 287 289 290 290 290 288 286 284 284 286 286 286 285 283 282 281 281 280
265 267 268 269 269 270 271 272 273 276 278 278 280 278 277 278 278 277 278 278 278 277 276 276 276 274 275 276 276 276 276 275 274 273 271 269 267 267 268 268 269 270 272 274 275 275 274 271 271 272 274 277 278 278 278 278 280 279 280 282 282 283 286 288 288 290 291 289 289 290 290 290 291 290 288 286 285 285 286 286 285 284 283 282 283 284 284 282
266 267 268 268 269 269 270 271 274 277 278 278 279 278 277 279 278 279 280 278 277 278 276 277 277 275 276 275 274 274 275 275 275 273 270 268 267 267 268 267 268 271 272 272 273 274 272 271 272 272 273 278 279 278 278 276 276 278 279 281 282 284 288 289 287 289 292 289 291 294 293 293 292 290 288 286 284 283 282 282 283 283 283 285 289 288 286 283
265 267 268 269 268 268 269 271 274 276 276 276 277 277 277 278 278 279 280 279 279 279 276 277 277 276 277 276 274 271 271 272 272 271 268 265 266 266 265 265 267 270 269 268 270 272 271 272 272 272 272 275 275 275 276 276 276 276 277 280 282 285 288 288 288 291 291 289 291 293 293 293 293 290 291 290 283 279 282 284 283 283 286 290 290 287 284 282
265 267 268 269 269 269 270 272 273 273 274 275 275 276 277 277 278 280 280 279 280 280 278 277 277 277 278 278 274 270 270 271 272 272 268 264 266 266 265 266 267 269 268 266 266 268 271 274 275 274 273 272 272 274 274 275 276 275 275 277 280 283 284 285 289 293 291 288 289 293 294 292 290 293 296 291 286 288 291 289 286 289 294 291 286 282 280 278
264 265 266 268 270 271 272 273 272 272 272 274 274 276 277 278 279 281 281 280 280 281 279 276 275 274 275 277 276 272 273 274 274 275 272 267 267 269 269 269 269 269 268 266 267 269 272 274 275 274 274 272 272 273 273 273 277 276 274 273 276 280 282 284 288 291 290 287 288 295 295 287 282 287 293 292 292 295 295 291 289 294 293 284 281 278 276 276
263 264 265 267 268 270 272 272 272 272 273 274 275 276 277 278 279 281 281 280 280 281 278 273 271 269 270 275 274 272 276 277 277 278 275 272 271 271 273 272 272 274 271 270 271 272 274 276 276 274 273 272 271 274 274 272 275 277 277 275 275 278 281 283 286 287 285 284 286 290 288 282 280 282 287 292 293 292 292 291 292 294 289 282 280 278 275 277
264 265 266 266 266 267 269 270 271 272 273 274 274 275 276 277 279 281 281 280 278 278 275 269 269 270 272 275 272 272 277 278 278 277 275 274 273 272 274 272 273 275 274 274 274 274 275 276 277 275 272 272 272 275 276 271 273 278 281 281 278 279 281 282 284 283 282 285 285 281 278 280 282 282 286 290 288 286 287 290 295 299 296 291 287 282 279 278
266 266 267 266 264 264 267 268 269 271 272 272 273 274 275 277 279 280 281 279 277 275 270 268 271 274 274 274 274 277 280 278 277 277 274 273 273 274 275 273 273 274 272 272 273 276 276 274 274 272 273 273 274 278 277 270 273 279 282 282 280 281 281 281 282 281 283 285 282 275 276 279 280 282 286 287 284 282 282 286 295 301 299 297 294 290 285 281
266 267 267 266 264 265 266 267 269 270 271 272 273 274 276 276 277 278 275 274 275 274 271 270 272 275 276 274 276 278 277 277 278 277 275 273 272 274 276 276 275 274 273 272 274 277 279 277 275 273 274 276 277 280 278 270 274 279 279 281 281 281 281 280 280 281 282 281 276 272 274 279 282 282 281 282 282 279 277 280 290 295 292 292 295 292 288 285
267 267 267 265 264 265 267 268 269 269 269 270 271 274 275 274 274 273 270 269 272 274 273 273 274 276 275 274 275 276 276 277 278 276 276 275 273 274 276 276 276 275 275 276 276 277 279 280 279 276 276 279 281 281 280 276 278 279 278 280 281 280 281 280 279 280 279 277 275 271 270 273 279 280 276 278 280 277 278 282 288 290 288 290 292 290 288 286
266 267 267 265 264 265 267 268 269 267 265 267 269 271 272 272 270 267 267 271 274 273 273 274 276 276 275 274 275 276 276 277 276 274 274 275 273 273 275 276 276 277 277 276 277 277 277 277 278 278 278 280 281 280 281 280 279 279 279 281 281 280 280 279 277 276 275 276 277 277 274 269 269 273 275 277 279 276 279 285 288 288 287 287 287 285 286 285
266 267 267 265 265 266 266 267 267 265 263 264 267 269 270 270 267 263 267 273 274 272 272 274 274 275 275 276 276 276 276 276 275 273 274 275 274 273 274 275 277 279 278 277 278 278 276 274 276 279 278 276 277 278 279 279 278 277 277 278 280 282 281 278 276 275 274 275 277 278 278 270 266 270 272 276 279 278 279 285 287 283 279 279 282 284 284 284
265 267 266 265 264 264 264 265 264 262 262 263 265 268 268 267 266 265 266 269 271 273 275 275 276 276 275 276 275 275 276 276 274 274 275 276 276 275 274 276 277 278 279 279 280 279 278 277 275 276 277 273 271 273 275 276 274 272 273 274 273 276 279 277 277 278 277 276 276 275 275 271 271 273 272 275 280 282 282 283 282 276 272 277 284 286 286 284
264 265 265 265 263 262 263 263 261 260 261 262 264 266 264 262 266 269 267 267 271 274 274 274 275 276 274 274 275 275 277 277 276 275 276 275 276 276 275 275 275 277 279 279 279 278 278 279 275 274 277 272 268 271 275 276 273 271 274 273 270 270 273 274 275 275 276 277 274 272 271 270 273 275 275 278 281 281 281 281 279 276 276 280 285 285 284 283
264 263 263 263 262 262 262 261 258 258 259 260 263 262 260 261 266 269 268 269 272 273 273 273 274 274 273 274 276 277 276 277 278 277 276 274 275 277 277 276 274 274 277 277 277 277 275 277 278 279 279 273 271 274 276 276 276 275 275 272 270 271 270 271 271 270 275 277 271 268 269 270 272 274 276 277 277 277 279 282 282 281 280 282 283 282 280 279
265 264 264 263 263 262 261 259 258 258 257 260 262 260 260 264 267 269 270 271 272 273 274 274 273 274 274 275 276 277 276 276 277 277 275 276 277 277 277 278 275 271 272 274 276 277 276 276 279 281 280 277 277 279 277 276 276 275 273 271 273 276 272 271 273 271 272 273 269 268 269 272 274 275 275 272 272 275 278 281 282 280 279 278 278 278 278 277
265 265 264 264 263 261 259 258 258 257 258 260 261 261 264 267 268 269 270 272 272 273 274 274 274 274 275 275 276 276 276 276 276 276 276 277 278 276 276 279 277 272 274 276 276 276 276 277 277 277 277 277 279 280 278 277 276 273 273 274 277 276 273 271 274 274 270 270 270 269 269 272 273 272 272 267 266 271 275 275 276 277 278 277 277 278 278 278
264 264 264 263 261 259 256 255 255 255 257 260 261 263 266 268 269 269 269 270 272 273 272 272 273 274 274 274 275 276 275 276 276 275 276 276 276 276 277 278 277 276 277 277 276 275 277 278 276 275 276 277 277 277 276 275 275 274 275 276 275 273 272 270 270 272 270 270 272 269 267 269 268 269 270 269 269 271 272 272 273 275 276 275 275 277 277 277
263 263 263 263 260 257 254 252 253 254 256 258 260 264 266 268 268 268 269 270 271 270 270 270 271 273 273 273 274 275 274 274 275 275 276 275 275 277 277 277 277 277 278 276 275 277 277 277 277 276 277 277 276 274 274 273 274 274 273 273 273 272 272 271 270 272 272 272 273 271 268 268 269 270 271 270 271 272 272 273 273 273 274 273 273 273 274 274
263 263 263 263 260 256 252 251 253 254 256 259 262 264 266 268 269 269 269 269 269 269 270 270 271 272 273 273 273 274 273 272 273 273 273 274 276 276 277 277 277 277 277 276 276 278 278 276 276 276 276 275 274 273 274 274 273 272 271 271 271 271 272 273 272 271 271 273 274 273 271 269 270 272 270 269 272 272 272 272 273 274 275 275 274 273 274 274
262 263 264 262 259 254 250 251 255 257 259 261 264 265 266 268 269 270 270 269 269 270 271 271 271 271 273 273 273 273 273 273 273 273 273 273 274 275 277 278 278 277 277 276 275 276 277 275 275 275 274 273 273 274 274 273 272 273 272 270 271 272 273 274 273 270 269 270 271 273 273 272 272 273 271 270 271 271 270 271 271 273 274 275 276 276 276 277
261 263 263 262 258 251 249 254 258 260 260 262 264 265 266 267 268 268 269 269 268 270 270 270 270 271 271 272 272 273 273 273 273 272 272 273 272 273 277 279 278 278 278 277 276 276 276 275 275 274 273 273 275 275 274 273 273 273 272 271 272 272 272 273 274 274 272 270 271 273 273 272 274 274 272 271 270 270 270 270 270 272 273 275 276 276 277 277
260 262 262 261 256 249 251 257 259 259 261 263 265 265 265 267 267 267 268 267 267 268 269 269 270 270 270 272 272 272 272 273 272 272 273 273 273 274 278 280 278 278 278 276 277 277 276 274 275 276 275 275 274 274 274 274 273 272 272 273 273 273 273 273 274 276 275 273 273 273 273 273 274 273 270 269 269 270 272 272 273 274 275 276 276 276 277 278
260 261 261 260 255 250 253 259 258 258 261 262 263 263 263 265 266 266 266 266 267 268 268 270 270 270 271 272 272 271 272 272 273 273 273 274 274 275 278 280 278 277 277 276 276 277 276 275 276 278 278 277 275 273 273 275 274 274 274 274 273 274 276 276 275 276 274 271 270 271 273 275 273 269 266 267 269 271 273 275 275 276 277 278 278 280 281 281
260 260 260 259 254 253 257 261 261 260 260 260 261 262 262 264 265 264 265 266 266 267 269 270 271 270 270 272 272 272 272 271 272 274 274 274 275 276 278 279 278 276 274 275 275 276 276 275 275 275 276 277 277 276 275 276 277 276 275 274 274 274 276 278 278 276 274 273 272 271 274 276 273 272 271 271 272 274 274 275 276 277 278 279 280 281 282 282
260 260 260 259 257 257 260 263 262 261 260 259 261 262 261 263 265 265 264 265 266 266 268 269 270 270 270 270 271 271 270 269 271 273 274 274 275 276 277 278 277 275 273 275 276 276 275 274 272 272 273 275 277 277 277 277 277 277 276 275 275 275 275 276 275 273 274 277 275 272 274 276 276 277 277 276 276 277 276 276 277 277 277 278 278 279 280 281
261 261 260 259 259 260 261 262 261 261 261 260 260 263 263 262 265 266 264 266 266 266 267 269 268 268 269 269 269 271 271 270 270 271 273 274 275 276 276 276 277 277 275 275 277 275 275 275 273 272 273 274 276 277 278 278 277 276 276 276 275 275 274 273 272 272 275 277 274 273 275 275 275 277 278 277 277 277 277 277 277 276 276 276 277 277 278 279
260 261 261 260 261 262 262 262 261 261 262 261 262 265 266 263 264 266 266 267 268 266 267 269 268 266 267 269 270 270 271 271 271 271 273 275 276 276 276 275 275 277 277 276 277 276 276 276 275 275 275 275 276 277 278 277 277 276 276 276 276 275 274 273 273 274 275 273 274 277 277 276 276 278 278 278 278 277 277 277 276 276 275 274 275 276 277 278
260 261 262 262 263 263 263 264 263 261 261 262 263 265 265 264 264 266 268 269 269 268 268 269 269 269 270 271 271 270 271 272 273 273 274 275 275 275 276 276 275 277 278 278 278 278 276 276 277 277 276 276 277 277 277 277 277 276 275 275 275 275 274 274 275 275 274 273 274 277 276 276 278 279 278 278 277 277 277 277 276 277 276 275 275 276 276 277
261 261 262 262 263 263 264 264 264 263 263 263 264 265 266 265 265 267 269 269 268 268 269 268 268 269 270 270 269 269 271 272 273 273 273 273 274 274 276 277 277 278 279 278 278 277 276 276 277 278 278 277 276 277 277 276 277 277 276 275 274 274 275 275 275 275 275 274 275 276 276 277 278 278 277 277 276 276 277 277 277 277 277 276 276 276 276 276
260 261 262 262 262 262 262 264 263 263 263 263 264 266 266 266 267 268 269 269 268 269 269 268 268 269 269 269 269 270 271 271 271 272 272 273 275 276 276 277 278 279 279 277 277 277 276 276 278 279 278 277 278 279 279 279 279 278 276 275 275 275 276 275 275 275 275 276 277 276 276 276 277 277 277 277 276 277 277 278 278 278 277 277 277 277 277 277
259 260 261 262 262 262 262 263 262 262 264 265 265 266 267 267 268 267 267 269 270 271 272 270 269 270 270 270 271 271 272 272 273 274 274 275 276 276 275 275 275 275 276 276 276 275 274 276 279 280 279 279 280 281 281 282 280 277 276 277 277 277 277 276 276 275 275 275 276 276 276 277 276 276 277 278 277 277 278 278 279 279 278 278 278 278 278 278